GW3655 Weather Reports


time (UTC)temp
C
wind
direction
speed
KPH
gust
KPH
rain 1hr
cm
rain 24hr
cm
rain mn
cm
humidity
%
barometer
mb
20260506090500 13 210 16.1 30.6 0.00 0.00 0.00 91 29.8
20260506085000 13 206 20.9 30.6 0.00 0.00 0.00 91 29.8
20260506081001 13 210 24.1 37.0 0.00 0.00 0.00 89 29.8
20260506062500 13 225 30.6 43.5 0.00 0.00 0.00 86 29.9
20260506061500 13 220 24.1 49.9 0.00 0.00 0.00 86 29.8
20260506060500 13 221 24.1 43.5 0.00 0.00 0.00 85 29.9
20260506042500 14 220 29.0 43.5 0.00 0.00 0.00 84 29.9
20260506041500 14 228 25.7 48.3 0.00 0.00 0.00 84 29.9
20260506041000 14 232 27.4 41.8 0.00 0.00 0.00 83 29.9
20260506034500 14 238 29.0 43.5 0.00 0.00 0.00 83 29.9
20260506034000 14 221 29.0 43.5 0.00 0.00 0.00 83 29.9
20260506033500 14 218 20.9 33.8 0.00 0.00 0.00 83 29.9
20260506031500 13 218 25.7 29.0 0.00 0.00 0.00 83 29.9
20260506031000 14 214 27.4 35.4 0.00 0.00 0.00 83 29.9
20260506030500 14 215 17.7 45.1 0.00 0.00 0.00 83 29.9
20260506025000 14 221 17.7 33.8 0.00 0.00 0.00 83 29.9
20260506024500 14 217 33.8 43.5 0.00 0.00 0.00 83 29.9
20260506023500 14 218 29.0 40.2 0.00 0.00 0.00 83 29.9
20260506020500 14 233 29.0 48.3 0.00 0.00 0.00 82 29.9
20260506020000 15 227 30.6 49.9 0.00 0.00 0.00 81 29.9
20260506015500 14 214 16.1 46.7 0.00 0.00 0.00 81 29.9
20260506015001 14 214 17.7 33.8 0.00 0.00 0.00 81 29.9
20260506014501 14 219 20.9 30.6 0.00 0.00 0.00 81 29.9
20260506013500 15 210 24.1 45.1 0.00 0.00 0.00 80 29.9
20260506012500 14 211 40.2 46.7 0.00 0.00 0.00 80 29.9
20260506012000 14 220 27.4 46.7 0.00 0.00 0.00 80 29.9
20260506011500 15 211 24.1 40.2 0.00 0.00 0.00 79 29.9
20260506011000 15 208 24.1 38.6 0.00 0.00 0.00 78 29.9
20260506004000 15 211 32.2 57.9 0.00 0.00 0.00 77 29.8
20260506003500 15 210 38.6 49.9 0.00 0.00 0.00 77 29.8
20260506003000 15 212 30.6 46.7 0.00 0.00 0.00 77 29.8
20260506002500 15 211 20.9 54.7 0.00 0.00 0.00 77 29.8
20260506002000 15 219 33.8 48.3 0.00 0.00 0.00 77 29.8
20260506001500 15 211 33.8 49.9 0.00 0.00 0.00 77 29.8
20260506001000 15 203 32.2 49.9 0.00 0.00 0.00 77 29.8
20260506000500 15 201 12.9 40.2 0.00 0.00 0.00 77 29.8
20260506000000 15 219 30.6 46.7 0.00 0.00 0.00 77 29.8
20260505235500 15 207 29.0 54.7 0.00 0.00 0.00 77 29.8
20260505234500 15 198 20.9 51.5 0.00 0.00 0.00 76 29.8
20260505233000 15 215 35.4 49.9 0.00 0.00 0.00 76 29.8
20260505231000 15 223 27.4 74.0 0.00 0.00 0.00 76 29.8
20260505230500 15 204 25.7 66.0 0.00 0.00 0.00 77 29.8
20260505230000 15 212 25.7 61.2 0.00 0.00 0.00 77 29.8
20260505225000 15 219 20.9 40.2 0.00 0.00 0.00 77 29.8
20260505224500 15 219 29.0 49.9 0.00 0.00 0.00 77 29.8
20260505224000 15 214 20.9 48.3 0.00 0.00 0.00 77 29.8
20260505223500 15 218 30.6 56.3 0.00 0.00 0.00 77 29.8
20260505222500 15 205 27.4 57.9 0.00 0.00 0.00 76 29.8
20260505221500 15 215 43.5 48.3 0.00 0.00 0.00 76 29.8
20260505221000 15 202 25.7 40.2 0.00 0.00 0.00 76 29.8
20260505220500 16 195 41.8 53.1 0.00 0.00 0.00 75 29.8
20260505220000 15 199 30.6 46.7 0.00 0.00 0.00 75 29.8
20260505215500 15 206 32.2 41.8 0.00 0.00 0.00 75 29.8
20260505215000 15 210 30.6 48.3 0.00 0.00 0.00 76 29.8
20260505214501 15 221 27.4 41.8 0.00 0.00 0.00 75 29.8
20260505213500 15 202 25.7 43.5 0.00 0.00 0.00 75 29.8
20260505213000 15 197 29.0 48.3 0.00 0.00 0.00 74 29.8
20260505212000 16 192 24.1 49.9 0.00 0.00 0.00 74 29.8
20260505211500 16 197 12.9 51.5 0.00 0.00 0.00 73 29.8
20260505211000 16 216 40.2 51.5 0.00 0.00 0.00 74 29.8
20260505210500 16 194 16.1 51.5 0.00 0.00 0.00 74 29.8
20260505210000 16 186 19.3 53.1 0.00 0.00 0.00 74 29.8
20260505205500 16 215 37.0 49.9 0.00 0.00 0.00 74 29.8
20260505205000 16 200 41.8 45.1 0.00 0.00 0.00 73 29.8
20260505204500 16 193 8.0 46.7 0.00 0.00 0.00 74 29.8
20260505204000 16 196 41.8 48.3 0.00 0.00 0.00 74 29.8
20260505203500 16 207 43.5 49.9 0.00 0.00 0.00 74 29.8
20260505203000 16 206 25.7 46.7 0.00 0.00 0.00 75 29.8
20260505202500 15 214 24.1 41.8 0.00 0.00 0.00 76 29.8
20260505202001 15 207 24.1 37.0 0.00 0.00 0.00 76 29.8
20260505201501 15 224 33.8 41.8 0.00 0.00 0.00 77 29.8
20260505201000 15 212 29.0 43.5 0.00 0.00 0.00 76 29.8
20260505195500 15 223 43.5 48.3 0.00 0.00 0.00 76 29.8
20260505195000 16 230 9.7 38.6 0.00 0.00 0.00 76 29.8
20260505194501 16 215 12.9 22.5 0.00 0.00 0.00 77 29.8
20260505194000 15 210 12.9 27.4 0.00 0.00 0.00 77 29.8
20260505193500 16 216 29.0 35.4 0.00 0.00 0.00 76 29.8
20260505193000 16 216 19.3 30.6 0.00 0.00 0.00 76 29.8
20260505192500 16 217 20.9 33.8 0.00 0.00 0.00 77 29.8
20260505192000 15 245 25.7 30.6 0.00 0.00 0.00 77 29.8
20260505191500 15 207 27.4 43.5 0.00 0.00 0.00 77 29.8
20260505191000 15 222 20.9 43.5 0.00 0.00 0.00 77 29.8
20260505190500 15 208 14.5 33.8 0.00 0.00 0.00 77 29.8
20260505190000 16 237 22.5 35.4 0.00 0.00 0.00 76 29.8
20260505185500 15 242 17.7 37.0 0.00 0.00 0.00 78 29.8
20260505185000 15 226 17.7 30.6 0.00 0.00 0.00 78 29.8
20260505184500 15 214 19.3 40.2 0.00 0.00 0.00 77 29.8
20260505184000 15 252 19.3 25.7 0.00 0.00 0.00 78 29.8
20260505183500 15 256 14.5 25.7 0.00 0.00 0.00 77 29.8
20260505183000 15 210 9.7 20.9 0.00 0.00 0.00 79 29.8
20260505182500 15 219 16.1 24.1 0.00 0.00 0.00 79 29.8
20260505182000 15 251 24.1 40.2 0.00 0.00 0.00 79 29.8
20260505181500 15 165 8.0 27.4 0.00 0.00 0.00 80 29.8
20260505181000 15 199 30.6 33.8 0.00 0.00 0.00 79 29.8
20260505180500 15 205 20.9 29.0 0.00 0.00 0.00 78 29.8
20260505180000 15 216 29.0 37.0 0.00 0.00 0.00 79 29.8
20260505175500 15 206 19.3 41.8 0.00 0.00 0.00 79 29.8
20260505175000 15 188 11.3 22.5 0.00 0.00 0.00 80 29.8
20260505174500 15 197 27.4 33.8 0.00 0.00 0.00 79 29.8
20260505174000 15 209 19.3 35.4 0.00 0.00 0.00 79 29.8
20260505173500 15 219 27.4 30.6 0.00 0.00 0.00 79 29.8
20260505173000 15 231 17.7 17.7 0.00 0.00 0.00 79 29.8
20260505172500 15 202 16.1 30.6 0.00 0.00 0.00 79 29.9
20260505172000 15 214 11.3 25.7 0.00 0.00 0.00 79 29.8
20260505171500 15 227 16.1 29.0 0.00 0.00 0.00 80 29.9
20260505171000 15 218 22.5 32.2 0.00 0.00 0.00 80 29.9
20260505170500 15 220 17.7 32.2 0.00 0.00 0.00 80 29.9
20260505170000 15 208 11.3 25.7 0.00 0.00 0.00 81 29.9
20260505165500 14 193 25.7 32.2 0.00 0.00 0.00 81 29.9
20260505165000 14 216 22.5 32.2 0.00 0.00 0.00 82 29.9
20260505164500 14 206 32.2 32.2 0.00 0.00 0.00 81 29.9
20260505164000 15 194 16.1 24.1 0.00 0.00 0.00 81 29.9
20260505163501 14 214 22.5 33.8 0.00 0.00 0.00 81 29.9
20260505163000 15 201 20.9 33.8 0.00 0.00 0.00 81 29.9
20260505162500 15 162 11.3 22.5 0.00 0.00 0.00 79 29.9
20260505162000 15 217 17.7 27.4 0.00 0.00 0.00 81 29.9
20260505161500 14 218 19.3 27.4 0.00 0.00 0.00 81 29.9
20260505161000 14 207 20.9 32.2 0.00 0.00 0.00 82 29.9
20260505160500 14 206 17.7 30.6 0.00 0.00 0.00 82 29.9
20260505153001 14 190 16.1 22.5 0.00 0.00 0.00 82 29.9
20260505152500 14 202 19.3 24.1 0.00 0.00 0.00 82 29.9
20260505152000 14 216 14.5 22.5 0.00 0.00 0.00 82 29.9
20260505151500 15 206 22.5 24.1 0.00 0.00 0.00 81 29.9
20260505151000 15 228 11.3 19.3 0.00 0.00 0.00 82 29.9
20260505150500 15 194 17.7 22.5 0.00 0.00 0.00 82 29.9
20260505140500 14 210 16.1 20.9 0.00 0.00 0.00 84 29.9
20260505124500 13 206 17.7 25.7 0.00 0.00 0.00 87 29.9
20260505124000 13 221 12.9 22.5 0.00 0.00 0.00 88 29.9
20260505123500 13 215 11.3 14.5 0.00 0.00 0.00 89 29.9
20260505123000 13 206 16.1 19.3 0.00 0.00 0.00 89 29.9
20260505122500 13 201 14.5 17.7 0.00 0.00 0.00 88 29.9
20260505122000 13 208 19.3 20.9 0.00 0.00 0.00 88 29.9
20260505121500 13 173 6.4 20.9 0.00 0.00 0.00 88 29.9
20260505121001 13 212 6.4 12.9 0.00 0.00 0.00 89 29.9
20260505115500 13 226 17.7 20.9 0.00 0.00 0.00 89 29.9
20260505112500 12 211 17.7 22.5 0.00 0.00 0.00 90 29.9
20260505112000 12 167 4.8 24.1 0.00 0.00 0.00 91 29.9
20260505111000 12 216 11.3 17.7 0.00 0.00 0.00 91 29.9
20260505110500 12 213 9.7 19.3 0.00 0.00 0.00 91 29.9
20260505102000 12 210 14.5 16.1 0.00 0.00 0.00 92 29.8
20260505100500 12 214 14.5 19.3 0.00 0.00 0.00 92 29.8
20260505095000 12 215 12.9 17.7 0.00 0.00 0.00 92 29.8